Hourly Data Report for July 21, 2021

TORONTO CITY
ONTARIO
Current Station Operator: ECCC - MSC

43°40'00.000" N
79°24'00.000" W
112.50 m
6158355
71508
XTO

Download Data

Hourly Data (July 2021)
Hourly Data Report for July 21, 2021
TIME
LST
Temp Definition
°C
Dew Point Definition
°C
Rel Hum Definition
%
Precip. Amount Definition
mm

Wind Dir Definition
10's deg

Wind Spd Definition
km/h
Visibility Definition
km
Stn Press Definition
kPa
Hmdx Definition


Wind Chill Definition


Weather Definition


00:00 20.1 15.3 74 0.0       100.08     LegendNANA
01:00 19.1 15.0 77 0.0       100.10     LegendNANA
02:00 18.4 14.1 76 0.0       100.11     LegendNANA
03:00 17.6 13.4 76 0.0       100.11     LegendNANA
04:00 17.1 13.2 78 0.0       100.14     LegendNANA
05:00 16.6 12.7 78 0.0       100.16     LegendNANA
06:00 16.4 13.3 81 0.0       100.22     LegendNANA
07:00 17.5 12.7 73 0.0       100.26     LegendNANA
08:00 19.4 12.5 64 0.0       100.31     LegendNANA
09:00 21.3 12.6 58 0.0       100.36     LegendNANA
10:00 22.1 10.7 48 0.0       100.39     LegendNANA
11:00 23.4 9.0 40 0.0       100.39     LegendNANA
12:00 23.9 9.5 40 0.0       100.41 25   LegendNANA
13:00 24.5 8.5 36 0.0       100.39 25   LegendNANA
14:00 24.5 7.6 34 0.0       100.37 25   LegendNANA
15:00 24.6 7.1 33 0.0       100.37 25   LegendNANA
16:00 25.2 8.1 34 0.0       100.37 26   LegendNANA
17:00 24.3 11.1 44 0.0       100.36 26   LegendNANA
18:00 23.6 11.4 46 0.0       100.41 26   LegendNANA
19:00 22.0 10.3 47 0.0       100.45     LegendNANA
20:00 20.8 9.8 49 0.0       100.51     LegendNANA
21:00 19.9 9.8 52 0.0       100.58     LegendNANA
22:00 19.3 10.0 55 0.0       100.60     LegendNANA
23:00 18.8 10.6 59 0.0       100.63     LegendNANA

Notes on Data Quality.

Legend

  • E = Estimated
  • M = Missing
  • NA = Not Available*
  • [empty] = Indicates an unobserved value
Date modified: